Location: Unspecified
(0.0000°N, 0.0000°E)
Time: 13:24:09
(UTC+00:00)

Envisat - Pass Details

Date: 27 March 2020
Orbit: 764 x 766 km, 98.1° (Epoch: 02 April)

Event Time Altitude Azimuth Distance (km) Brightness Sun altitude
Rises 18:52:34 0° 191° (S) 3,231 6.3 -11.8°
Reaches altitude 10° 18:55:15 10° 204° (SSW) 2,302 5.8 -12.5°
Maximum altitude 18:59:18 24° 258° (WSW) 1,534 5.5 -13.5°
Drops below altitude 10° 19:03:20 10° 311° (NW) 2,293 6.3 -14.5°
Sets 19:06:01 0° 325° (NW) 3,216 6.8 -15.2°
